Starlink 30039

operational
NORAD ID: 57468 Int'l Des: 2023-107 Owner: SPXS Country: US Constellation: starlink
LEOCIRCULAR

Starlink 30039について

説明を読み込み中...

リアルタイム位置

3D地球を読み込み中...

次回通過

高度履歴

Altitude vs Time

uPlot chart will show altitude changes over time

軌道要素

1 57468U 23107M 25259.57632815 .00000328 00000-0 39345-4 0 9994
2 57468 43.0010 204.9268 0000827 259.7539 100.3210 15.02538137118921
Epoch: Sep 16, 2025 • Age: 11 hours

現在のステータス

高度 561.7 km
速度 7.59 km/s
衛星直下点 38.22°N, 116.07°W
打ち上げ日 Jul 28, 2023
運用期間 2.1 years
タイプ internet

技術仕様

分類 Payload
質量 730.00 kg
乾燥質量 700.00 kg
総質量 730.00 kg
長さ 0.30 m
直径 4.10 m
スパン 29.00 m
形状 Box + pan
製造者 SPXS
バスタイプ Starlink V2M
フェーズステータス In Orbit
所有者/国 SPXS/US

大規模コンステレーション

Loading constellations...